Terug naar catalogus

STARLINK-36640

ActiefCommunicatieSSO
NORAD 67600·PAYLOAD·🇺🇸 United States

Gelanceerd Jan 29, 2026 vanaf Vandenberg Space Force Base

Loading…

Volgende Passages (komende 24 uur)

TLE

VersSource: CelesTrak SupGP

Epoch: Sep 15, 2026, 02:49 UTC

1 67600C 26018M   26258.11784722  .00005382  00000+0  16705-3 0  2588
2 67600  97.2853 321.6147 0000976  80.3549 255.9777 15.33438671    14

Volg STARLINK-36640 in realtime met AllMySat

Download on the App Store